Regional Weather Roundup
Issued by NWS

Home | Current Version | Previous Version | Text Only | Print | Product List | Glossary Off
Versions: 1 2 3 4 5 6 7 8 9 10 11 12 13 14 15 16 17 18 19 20 21 22 23 24 25 26 27 28 29 30 31 32 33 34 35 36 37 38 39 40 41 42 43 44 45 46 47 48 49 50

000
ASUS43 KOAX 290810
RWRNE

WEATHER ROUNDUP FOR NEBRASKA
NATIONAL WEATHER SERVICE OMAHA NE
300 AM CDT FRI JUL 29 2016

NOTES: SATELLITE DATA IS BEING USED TO AUGMENT CLOUD COVER ABOVE
       12000 FEET.
       "FAIR" INDICATES FEW OR NO CLOUDS BELOW 12,000 FEET WITH NO
       SIGNIFICANT WEATHER AND/OR OBSTRUCTIONS TO VISIBILITY.

  * THESE STATIONS DO NOT REPORT WEATHER SUCH AS RAIN...SNOW OR FOG.

NEZ001>004-019>022-054>056-290900-
NEBRASKA PANHANDLE

CITY           SKY/WX    TMP DP  RH WIND       PRES   REMARKS
SCOTTSBLUFF    CLEAR     61  58  90 S3        30.18S
ALLIANCE       CLEAR     57  55  93 NE6       30.17F
CHADRON        CLEAR     60  56  86 SE5       30.15F
KIMBALL        PTCLDY    62  60  94 SW6       30.23F
SIDNEY         PTCLDY    60  58  92 SW7       30.21F
$$

NEZ057>060-069>072-079>082-290900-
SOUTHWEST NEBRASKA

CITY           SKY/WX    TMP DP  RH WIND       PRES   REMARKS
NORTH PLATTE   CLEAR     58  57  97 N3        30.13F
IMPERIAL       CLOUDY    64  61  90 W7        30.14F
LEXINGTON      CLEAR     63  61  93 CALM      30.10F
MCCOOK         CLEAR     60  58  92 CALM      30.11F
OGALLALA       PTCLDY    62  59  91 CALM      30.15S
$$

NEZ005>010-023>029-035>040-094-290900-
NORTH CENTRAL NEBRASKA

CITY           SKY/WX    TMP DP  RH WIND       PRES   REMARKS
VALENTINE      CLOUDY    60  58  92 CALM      30.14S
AINSWORTH      CLOUDY    61  61 100 CALM      30.13S
BROKEN BOW     PTCLDY    61  61 100 W3        30.11S
O`NEILL        CLOUDY    66  64  94 N6        30.10S
ORD            CLOUDY    64  62  93 NW5       30.08F
THEDFORD       CLEAR     58  57  97 CALM      30.15S
$$

NEZ041-046>049-061>064-073>077-083>087-290900-
SOUTH CENTRAL NEBRASKA

CITY           SKY/WX    TMP DP  RH WIND       PRES   REMARKS
GRAND ISLAND   PTCLDY    67  65  93 NW5       30.06F
AURORA         MOCLDY    66  65  97 N5        30.05F
HASTINGS       CLOUDY    65  64  97 CALM      30.07S
HEBRON         MOCLDY    66  63  89 CALM      30.03S
HOLDREGE       CLEAR     64  62  94 CALM      30.08F FOG
KEARNEY *      MOCLDY    64   9  11 NW5       30.09S
YORK           CLOUDY    66  64  94 CALM      30.04F
$$

NEZ011>018-030>034-042>045-290900-
NORTHEAST NEBRASKA

CITY           SKY/WX    TMP DP  RH WIND       PRES   REMARKS
NORFOLK        CLOUDY    68  62  81 NE3       30.05F
ALBION         MOCLDY    67  63  86 W3        30.07S
BLAIR          CLOUDY    68  64  88 N6        30.02F
FREMONT        PTCLDY    68  64  85 CALM      30.03F
TEKAMAH        CLOUDY    65  62  90 N7        30.02F
WAYNE          CLOUDY    63  62  96 CALM      30.06F
$$

NEZ050>053-065>068-078-088>093-290900-
SOUTHEAST NEBRASKA

CITY           SKY/WX    TMP DP  RH WIND       PRES   REMARKS
LINCOLN        PTCLDY    68  64  87 N5        30.03S
OMAHA EPPLEY   CLOUDY    69  64  84 N7        30.00F
BEATRICE       PTCLDY    66  63  89 CALM      30.02R
FALLS CITY     MOCLDY    69  67  93 N5        29.99F
NEBRASKA CITY  CLOUDY    67  67 100 N5        30.01F
PLATTSMOUTH    CLOUDY    68  65  90 CALM      30.01F
$$

NEZ044-045-051>053-067-290900-
OMAHA AREA

CITY           SKY/WX    TMP DP  RH WIND       PRES   REMARKS
OMAHA EPPLEY   CLOUDY    69  64  84 N7        30.00F
BLAIR          CLOUDY    68  64  88 N6        30.02F
FREMONT        PTCLDY    68  64  85 CALM      30.03F
MILLARD        CLOUDY    73  64  73 CALM      30.01S
OFFUTT AFB     CLOUDY    70  64  81 NE3       30.00F
PLATTSMOUTH    CLOUDY    68  65  90 CALM      30.01F
WAHOO          FAIR      68  66  92 NW3       30.02S
$$




USA.gov is the U.S. government's official web portal to all federal, state and local government web resources and services.